{"data":{"norad_id":66655,"epoch":"2026-09-20T01:51:40.604256Z","epoch_age_seconds":54744,"freshness":"FRESH","line1":"1 66655U 25274F   26263.07755329  .00000773  00000+0  89301-4 0  9996","line2":"2 66655  97.7430 188.9545 0002832 291.2577  68.8337 14.88332150 44264","mean_motion":14.8833215,"eccentricity":0.0002832,"inclination_deg":97.743,"raan_deg":188.9545,"arg_perigee_deg":291.2577,"mean_anomaly_deg":68.8337,"bstar":8.9301e-5,"rev_number":4426,"period_min":96.752596522221,"perigee_km":601.16926237323,"apogee_km":605.12346126936,"semimajor_km":6981.2833618213,"source":"CELESTRAK","updated_at":"2026-09-20T09:00:34.133441Z"}}